EWG3MB EGBB-EDDL

Flight info

Callsign EWG3MB
Flight time N/A
Altitude 33000
Route DTY P166 BANTO P155 SIVDA P137 REDFA DCT TACHA L620 PAM P62 PISAP PISAP1A
Aircraft A320/M-SDE3FGHIRWY/LB1

Departure

Time N/A
Airport Birmingham Airport (EGBB)

Arrival

Time 2026-05-04 17:48
Airport Düsseldorf Airport (EDDL)
Time Latitude Longitude Altitude Speed Heading
2026-05-04 17:35 51.75269 7.05441 12034 ft 322 kts 134°
2026-05-04 17:35 51.73612 7.07828 11703 ft 317 kts 143°
2026-05-04 17:36 51.71620 7.09919 11346 ft 311 kts 159°
2026-05-04 17:36 51.69518 7.10466 11023 ft 305 kts 186°
2026-05-04 17:36 51.67535 7.09451 10706 ft 300 kts 212°
2026-05-04 17:36 51.66032 7.07184 10390 ft 296 kts 232°
2026-05-04 17:37 51.64794 7.04559 10088 ft 293 kts 233°
2026-05-04 17:37 51.63595 7.01995 9986 ft 287 kts 232°
2026-05-04 17:37 51.62797 7.00290 9987 ft 286 kts 232°
2026-05-04 17:37 51.61182 6.96864 9993 ft 286 kts 232°
2026-05-04 17:38 51.60388 6.95187 9992 ft 287 kts 232°
2026-05-04 17:38 51.59196 6.92678 9994 ft 286 kts 231°
2026-05-04 17:38 51.57894 6.90200 9988 ft 284 kts 219°
2026-05-04 17:38 51.56173 6.88899 9913 ft 271 kts 188°
2026-05-04 17:39 51.52828 6.90617 9648 ft 254 kts 141°
2026-05-04 17:39 51.51518 6.92451 9281 ft 247 kts 138°
2026-05-04 17:39 51.50517 6.94651 8784 ft 246 kts 111°
2026-05-04 17:40 51.50310 6.97323 8245 ft 247 kts 88°
2026-05-04 17:40 51.50495 7.00067 7677 ft 248 kts 84°
2026-05-04 17:40 51.50737 7.02800 7188 ft 249 kts 83°
2026-05-04 17:40 51.50974 7.05539 6923 ft 246 kts 89°
2026-05-04 17:41 51.50674 7.08154 6660 ft 238 kts 120°
2026-05-04 17:41 51.49635 7.10161 6379 ft 234 kts 141°
2026-05-04 17:41 51.48393 7.11838 6089 ft 232 kts 143°
2026-05-04 17:41 51.47148 7.13444 5711 ft 231 kts 144°
2026-05-04 17:42 51.45773 7.14751 5315 ft 226 kts 167°
2026-05-04 17:42 51.44242 7.14700 5027 ft 220 kts 201°
2026-05-04 17:42 51.43032 7.13245 5002 ft 218 kts 234°
2026-05-04 17:42 51.42591 7.11015 4936 ft 211 kts 266°
2026-05-04 17:43 51.42657 7.08658 4892 ft 213 kts 271°
2026-05-04 17:43 51.42511 7.06330 4509 ft 215 kts 248°
2026-05-04 17:43 51.41760 7.04324 4178 ft 208 kts 231°
2026-05-04 17:43 51.40887 7.02479 3901 ft 209 kts 232°
2026-05-04 17:44 51.40007 7.00614 3621 ft 211 kts 231°
2026-05-04 17:44 51.39120 6.98734 3334 ft 212 kts 231°
2026-05-04 17:44 51.38242 6.96874 3048 ft 204 kts 232°
2026-05-04 17:44 51.37429 6.95152 2806 ft 185 kts 232°
2026-05-04 17:45 51.36671 6.93549 2556 ft 177 kts 231°
2026-05-04 17:45 51.35937 6.92000 2323 ft 174 kts 231°
2026-05-04 17:45 51.35212 6.90469 2100 ft 172 kts 231°
2026-05-04 17:45 51.34492 6.88949 1854 ft 171 kts 230°
2026-05-04 17:46 51.33777 6.87440 1634 ft 170 kts 230°
2026-05-04 17:46 51.33064 6.85936 1406 ft 166 kts 230°
2026-05-04 17:46 51.32403 6.84540 1163 ft 148 kts 230°
2026-05-04 17:46 51.31807 6.83285 952 ft 135 kts 231°
2026-05-04 17:47 51.31244 6.82101 783 ft 137 kts 229°
2026-05-04 17:47 51.30664 6.80872 586 ft 139 kts 231°
2026-05-04 17:47 51.30073 6.79624 407 ft 144 kts 230°
2026-05-04 17:47 51.29462 6.78350 205 ft 143 kts 231°
2026-05-04 17:48 51.28903 6.77192 128 ft 103 kts 233°
2026-05-04 17:48 51.28620 6.76589 127 ft 52 kts 233°
2026-05-04 17:48 51.28418 6.76163 126 ft 36 kts 232°
2026-05-04 17:48 51.28264 6.76045 127 ft 20 kts 170°
2026-05-04 17:49 51.28207 6.76076 126 ft 1 kts 157°
2026-05-04 17:49 51.28185 6.76091 128 ft 9 kts 165°
2026-05-04 17:49 51.28134 6.76035 128 ft 8 kts 224°
2026-05-04 17:49 51.28080 6.76043 127 ft 10 kts 160°
2026-05-04 17:50 51.28002 6.76046 126 ft 12 kts 180°
2026-05-04 17:50 51.27911 6.76047 130 ft 14 kts 181°
2026-05-04 17:50 51.27842 6.76123 127 ft 14 kts 102°
2026-05-04 17:50 51.27838 6.76245 130 ft 10 kts 97°
2026-05-04 17:51 51.27811 6.76324 129 ft 8 kts 165°
2026-05-04 17:51 51.27783 6.76337 125 ft 2 kts 162°
2026-05-04 17:51 51.27780 6.76339 126 ft 0 kts 162°